When you browse on this site, cookies collect data to enhance your experience and personalize the content and advertising you see.
Visit our Privacy Policy to learn more. By continuing to use the site, you agree to this use of cookies and data.
  • în România
  • Lista ţărilor
  • Pe 7 zile
  • Temperatura apei
  • Hartă satelitară
  • Meteo pe hartă
  • Widget-uri
  • user-avatar
    Intrare

    Meteo pe oră la Kuzhlevo

    Astăzi, 25 Aprilie, Joi

    Timp Temperatura Precipitaţii Vânt Presiune Umiditate
    00:00 +12°C° 0 mm 1 m/s 754 mmHg 63%
    01:00 +12°C° 0 mm 1 m/s 754 mmHg 65%
    02:00 +10°C° 0 mm 0 m/s 754 mmHg 69%
    03:00 +10°C° 0 mm 0 m/s 754 mmHg 71%
    04:00 +11°C° 0 mm 1 m/s 754 mmHg 72%
    05:00 +10°C° 0 mm 1 m/s 753 mmHg 73%
    06:00 +13°C° 0 mm 1 m/s 753 mmHg 66%
    07:00 +15°C° 0 mm 1 m/s 753 mmHg 59%
    08:00 +18°C° 0 mm 1 m/s 753 mmHg 53%
    09:00 +20°C° 0 mm 1 m/s 753 mmHg 47%
    10:00 +22°C° 0 mm 1 m/s 753 mmHg 42%
    11:00 +23°C° 0 mm 1 m/s 753 mmHg 37%
    12:00 +24°C° 0 mm 1 m/s 753 mmHg 35%
    13:00 +24°C° 0 mm 1 m/s 753 mmHg 33%
    14:00 +25°C° 0 mm 1 m/s 752 mmHg 31%
    15:00 +23°C° 0 mm 1 m/s 752 mmHg 35%
    16:00 +22°C° 0 mm 1 m/s 752 mmHg 40%
    17:00 +21°C° 0 mm 1 m/s 752 mmHg 45%
    18:00 +20°C° 0 mm 1 m/s 752 mmHg 47%
    19:00 +19°C° 0 mm 1 m/s 752 mmHg 48%
    20:00 +18°C° 0 mm 1 m/s 752 mmHg 50%
    21:00 +16°C° 0 mm 1 m/s 752 mmHg 53%
    22:00 +15°C° 0 mm 1 m/s 752 mmHg 56%
    23:00 +14°C° 0 mm 1 m/s 752 mmHg 58%

    Mâine, 26 Aprilie, Vineri

    Timp Temperatura Precipitaţii Vânt Presiune Umiditate
    00:00 +14°C° 0 mm 1 m/s 752 mmHg 59%
    01:00 +13°C° 0 mm 1 m/s 752 mmHg 60%
    02:00 +13°C° 0 mm 1 m/s 752 mmHg 61%
    03:00 +12°C° 0 mm 1 m/s 752 mmHg 64%
    04:00 +12°C° 0 mm 1 m/s 752 mmHg 67%
    05:00 +12°C° 0 mm 1 m/s 752 mmHg 69%
    06:00 +13°C° 0 mm 1 m/s 752 mmHg 66%
    07:00 +15°C° 0 mm 1 m/s 751 mmHg 63%
    08:00 +18°C° 0 mm 1 m/s 751 mmHg 60%
    09:00 +18°C° 0 mm 2 m/s 751 mmHg 54%
    10:00 +20°C° 0 mm 2 m/s 751 mmHg 48%
    11:00 +21°C° 0 mm 2 m/s 751 mmHg 42%
    12:00 +21°C° 0 mm 2 m/s 751 mmHg 42%
    13:00 +21°C° 0 mm 2 m/s 750 mmHg 42%
    14:00 +22°C° 0 mm 1 m/s 750 mmHg 42%
    15:00 +22°C° 0 mm 1 m/s 749 mmHg 42%
    16:00 +22°C° 0 mm 1 m/s 749 mmHg 42%
    17:00 +22°C° 0 mm 1 m/s 749 mmHg 43%
    18:00 +21°C° 0 mm 1 m/s 749 mmHg 46%
    19:00 +19°C° 0 mm 1 m/s 748 mmHg 50%
    20:00 +17°C° 0 mm 2 m/s 748 mmHg 53%
    21:00 +16°C° 0 mm 2 m/s 748 mmHg 55%
    22:00 +15°C° 0 mm 2 m/s 748 mmHg 57%
    23:00 +15°C° 0 mm 2 m/s 748 mmHg 59%

    Poimâine, 27 Aprilie, Sâmbătă

    Timp Temperatura Precipitaţii Vânt Presiune Umiditate
    00:00 +14°C° 0 mm 2 m/s 747 mmHg 61%
    01:00 +13°C° 0 mm 2 m/s 747 mmHg 63%
    02:00 +12°C° 0 mm 2 m/s 746 mmHg 65%
    03:00 +12°C° 0 mm 2 m/s 746 mmHg 67%
    04:00 +12°C° 0 mm 2 m/s 746 mmHg 69%
    05:00 +12°C° 0 mm 2 m/s 745 mmHg 71%
    06:00 +14°C° 0 mm 2 m/s 745 mmHg 66%
    07:00 +16°C° 0 mm 3 m/s 745 mmHg 61%
    08:00 +17°C° 0 mm 3 m/s 744 mmHg 56%
    09:00 +19°C° 0 mm 3 m/s 744 mmHg 49%
    10:00 +20°C° 0 mm 4 m/s 743 mmHg 43%
    11:00 +22°C° 0 mm 5 m/s 743 mmHg 37%
    12:00 +22°C° 0 mm 4 m/s 743 mmHg 36%
    13:00 +23°C° 0 mm 4 m/s 742 mmHg 35%
    14:00 +23°C° 0 mm 4 m/s 742 mmHg 34%
    15:00 +24°C° 0 mm 3 m/s 741 mmHg 37%
    16:00 +23°C° 0 mm 2 m/s 741 mmHg 40%
    17:00 +23°C° 0 mm 2 m/s 741 mmHg 43%
    18:00 +19°C° 0.2 mm 2 m/s 741 mmHg 56%
    19:00 +17°C° 0.2 mm 3 m/s 741 mmHg 68%
    20:00 +14°C° 0.2 mm 4 m/s 741 mmHg 80%
    21:00 +13°C° 0.7 mm 3 m/s 741 mmHg 84%
    22:00 +12°C° 0.7 mm 3 m/s 741 mmHg 88%
    23:00 +12°C° 0.7 mm 3 m/s 741 mmHg 92%

    28 Aprilie, Duminică

    Timp Temperatura Precipitaţii Vânt Presiune Umiditate
    00:00 +11°C° 0.4 mm 4 m/s 742 mmHg 90%
    01:00 +10°C° 0.4 mm 4 m/s 742 mmHg 88%
    02:00 +9°C° 0.4 mm 5 m/s 742 mmHg 86%
    03:00 +7°C° 0 mm 5 m/s 743 mmHg 85%
    04:00 +6°C° 0 mm 5 m/s 743 mmHg 84%
    05:00 +5°C° 0 mm 5 m/s 744 mmHg 83%
    06:00 +5°C° 0 mm 5 m/s 745 mmHg 77%
    07:00 +3°C° 0 mm 5 m/s 746 mmHg 71%
    08:00 +3°C° 0 mm 5 m/s 747 mmHg 65%
    09:00 +5°C° 0 mm 5 m/s 747 mmHg 58%
    10:00 +6°C° 0 mm 5 m/s 748 mmHg 52%
    11:00 +7°C° 0 mm 5 m/s 748 mmHg 45%
    12:00 +7°C° 0 mm 5 m/s 749 mmHg 43%
    13:00 +7°C° 0 mm 5 m/s 749 mmHg 41%
    14:00 +8°C° 0 mm 5 m/s 749 mmHg 39%
    15:00 +7°C° 0 mm 5 m/s 749 mmHg 39%
    16:00 +7°C° 0 mm 5 m/s 749 mmHg 39%
    17:00 +6°C° 0 mm 5 m/s 750 mmHg 39%
    18:00 +5°C° 0 mm 4 m/s 750 mmHg 44%
    19:00 +4°C° 0 mm 3 m/s 751 mmHg 49%
    20:00 +2°C° 0 mm 3 m/s 751 mmHg 53%
    21:00 +3°C° 0 mm 2 m/s 752 mmHg 56%
    22:00 +2°C° 0 mm 2 m/s 752 mmHg 59%
    23:00 +1°C° 0 mm 2 m/s 753 mmHg 62%

    29 Aprilie, Luni

    Timp Temperatura Precipitaţii Vânt Presiune Umiditate
    00:00 +1°C° 0 mm 2 m/s 753 mmHg 63%
    01:00 -1°C° 0 mm 2 m/s 753 mmHg 65%
    02:00 -1°C° 0 mm 2 m/s 754 mmHg 66%
    03:00 -1°C° 0 mm 2 m/s 754 mmHg 66%
    04:00 -2°C° 0 mm 2 m/s 754 mmHg 66%
    05:00 -2°C° 0 mm 2 m/s 754 mmHg 67%
    06:00 0°C° 0 mm 3 m/s 755 mmHg 59%
    07:00 +1°C° 0 mm 3 m/s 755 mmHg 51%
    08:00 +3°C° 0 mm 3 m/s 755 mmHg 43%
    09:00 +4°C° 0 mm 3 m/s 755 mmHg 40%
    10:00 +5°C° 0 mm 3 m/s 755 mmHg 38%
    11:00 +7°C° 0 mm 3 m/s 755 mmHg 36%
    12:00 +8°C° 0 mm 3 m/s 755 mmHg 35%
    13:00 +8°C° 0 mm 3 m/s 754 mmHg 35%
    14:00 +9°C° 0 mm 3 m/s 754 mmHg 34%
    15:00 +8°C° 0 mm 3 m/s 754 mmHg 35%
    16:00 +8°C° 0 mm 2 m/s 754 mmHg 36%
    17:00 +8°C° 0 mm 2 m/s 753 mmHg 37%
    18:00 +6°C° 0 mm 2 m/s 753 mmHg 44%
    19:00 +4°C° 0 mm 2 m/s 754 mmHg 50%
    20:00 +4°C° 0 mm 1 m/s 754 mmHg 56%
    21:00 +3°C° 0 mm 1 m/s 754 mmHg 58%
    22:00 +2°C° 0 mm 1 m/s 754 mmHg 59%
    23:00 +2°C° 0 mm 1 m/s 754 mmHg 60%

    30 Aprilie, Marţi

    Timp Temperatura Precipitaţii Vânt Presiune Umiditate
    00:00 +1°C° 0 mm 1 m/s 754 mmHg 60%
    01:00 0°C° 0 mm 0 m/s 754 mmHg 60%
    02:00 -1°C° 0 mm 0 m/s 755 mmHg 60%
    03:00 0°C° 0 mm 0 m/s 755 mmHg 59%
    04:00 0°C° 0 mm 0 m/s 755 mmHg 58%
    05:00 0°C° 0 mm 0 m/s 755 mmHg 56%
    06:00 +3°C° 0 mm 0 m/s 755 mmHg 50%
    07:00 +5°C° 0 mm 0 m/s 755 mmHg 44%
    08:00 +8°C° 0 mm 0 m/s 755 mmHg 38%
    09:00 +9°C° 0 mm 0 m/s 754 mmHg 35%
    10:00 +11°C° 0 mm 1 m/s 754 mmHg 33%
    11:00 +12°C° 0 mm 1 m/s 754 mmHg 31%
    12:00 +13°C° 0 mm 1 m/s 754 mmHg 31%
    13:00 +13°C° 0 mm 1 m/s 753 mmHg 30%
    14:00 +13°C° 0 mm 1 m/s 753 mmHg 29%
    15:00 +13°C° 0 mm 1 m/s 752 mmHg 30%
    16:00 +12°C° 0 mm 1 m/s 752 mmHg 31%
    17:00 +12°C° 0 mm 1 m/s 751 mmHg 32%
    18:00 +10°C° 0 mm 1 m/s 751 mmHg 37%
    19:00 +7°C° 0 mm 0 m/s 751 mmHg 43%
    20:00 +5°C° 0 mm 0 m/s 751 mmHg 49%
    21:00 +4°C° 0 mm 0 m/s 751 mmHg 51%
    22:00 +4°C° 0 mm 0 m/s 751 mmHg 53%
    23:00 +3°C° 0 mm 0 m/s 751 mmHg 55%
    Arată mai mult